EVA2770 ZUUU-ZGSZ

Flight info

Callsign EVA2770
Flight time N/A
Altitude 35098
Route IDBOR9W IDBOR B330 KWE W181 DUDIT A599 POU W7 SAREX SAREX3
Aircraft B77W/H-SDE1E2E3FGHIJ2J3J4J5M1RWXY/LB1D1

Departure

Time N/A
Airport Chengdu Shuangliu International Airport (ZUUU)

Arrival

Time 2026-04-30 10:22
Airport Shenzhen Bao'an International Airport (ZGSZ)
Time Latitude Longitude Altitude Speed Heading
2026-04-30 10:03 23.04632 112.83619 16346 ft 361 kts 94°
2026-04-30 10:03 23.04448 112.86330 15665 ft 359 kts 94°
2026-04-30 10:03 23.04263 112.89028 15004 ft 356 kts 94°
2026-04-30 10:03 23.04082 112.91653 14429 ft 351 kts 94°
2026-04-30 10:04 23.03900 112.94293 13807 ft 347 kts 94°
2026-04-30 10:04 23.03721 112.96871 13485 ft 333 kts 94°
2026-04-30 10:04 23.03548 112.99359 13159 ft 321 kts 94°
2026-04-30 10:04 23.03382 113.01739 12699 ft 316 kts 94°
2026-04-30 10:05 23.03213 113.04154 12158 ft 314 kts 94°
2026-04-30 10:05 23.03049 113.06487 11645 ft 311 kts 94°
2026-04-30 10:05 23.02886 113.08812 11152 ft 307 kts 94°
2026-04-30 10:05 23.02726 113.11079 10659 ft 304 kts 94°
2026-04-30 10:06 23.02566 113.13357 10121 ft 303 kts 94°
2026-04-30 10:06 23.02405 113.15636 9637 ft 299 kts 94°
2026-04-30 10:06 23.02137 113.17882 9144 ft 296 kts 102°
2026-04-30 10:06 23.01576 113.20007 8677 ft 292 kts 111°
2026-04-30 10:07 23.00746 113.21993 8210 ft 288 kts 117°
2026-04-30 10:07 22.99810 113.23955 7733 ft 285 kts 117°
2026-04-30 10:07 22.98892 113.25878 7291 ft 280 kts 117°
2026-04-30 10:07 22.97999 113.27751 6851 ft 276 kts 117°
2026-04-30 10:08 22.97125 113.29583 6415 ft 273 kts 117°
2026-04-30 10:08 22.96255 113.31408 6160 ft 271 kts 117°
2026-04-30 10:08 22.95386 113.33228 6141 ft 274 kts 117°
2026-04-30 10:08 22.94494 113.35096 5914 ft 272 kts 117°
2026-04-30 10:09 22.93626 113.36915 5678 ft 270 kts 117°
2026-04-30 10:09 22.92758 113.38731 5440 ft 269 kts 117°
2026-04-30 10:09 22.91887 113.40555 5226 ft 267 kts 116°
2026-04-30 10:09 22.91035 113.42337 5193 ft 267 kts 116°
2026-04-30 10:10 22.90173 113.44139 5188 ft 267 kts 116°
2026-04-30 10:10 22.89264 113.45854 5179 ft 267 kts 127°
2026-04-30 10:10 22.87862 113.47224 5173 ft 268 kts 149°
2026-04-30 10:10 22.86120 113.47944 5173 ft 268 kts 171°
2026-04-30 10:11 22.84256 113.48015 5183 ft 268 kts 183°
2026-04-30 10:11 22.82365 113.47901 5183 ft 267 kts 184°
2026-04-30 10:11 22.80506 113.47765 5187 ft 270 kts 184°
2026-04-30 10:11 22.78552 113.47619 5191 ft 284 kts 184°
2026-04-30 10:12 22.76572 113.47472 5192 ft 288 kts 184°
2026-04-30 10:12 22.74554 113.47322 5192 ft 288 kts 184°
2026-04-30 10:12 22.72551 113.47173 5195 ft 288 kts 184°
2026-04-30 10:12 22.70538 113.47025 5192 ft 288 kts 184°
2026-04-30 10:13 22.68509 113.46874 5194 ft 288 kts 185°
2026-04-30 10:13 22.66477 113.46723 5194 ft 288 kts 185°
2026-04-30 10:13 22.64611 113.46585 5196 ft 289 kts 184°
2026-04-30 10:13 22.62569 113.46434 5195 ft 289 kts 184°
2026-04-30 10:14 22.60539 113.46346 5185 ft 289 kts 175°
2026-04-30 10:14 22.58620 113.47008 5186 ft 290 kts 148°
2026-04-30 10:14 22.56093 113.50306 5047 ft 287 kts 118°
2026-04-30 10:15 22.55152 113.52160 4856 ft 280 kts 117°
2026-04-30 10:15 22.54246 113.53989 4664 ft 273 kts 117°
2026-04-30 10:15 22.53460 113.55748 4462 ft 266 kts 105°
2026-04-30 10:15 22.53212 113.57722 4265 ft 260 kts 90°
2026-04-30 10:16 22.53193 113.59632 4078 ft 258 kts 88°
2026-04-30 10:16 22.53208 113.61563 3873 ft 256 kts 88°
2026-04-30 10:16 22.53225 113.63465 3672 ft 255 kts 87°
2026-04-30 10:17 22.53255 113.67252 3289 ft 251 kts 88°
2026-04-30 10:17 22.53282 113.70884 2868 ft 230 kts 88°
2026-04-30 10:17 22.53294 113.72559 2680 ft 217 kts 88°
2026-04-30 10:18 22.53307 113.74158 2491 ft 206 kts 88°
2026-04-30 10:18 22.53318 113.75675 2302 ft 196 kts 88°
2026-04-30 10:18 22.53328 113.77119 2113 ft 188 kts 88°
2026-04-30 10:19 22.53347 113.79821 1735 ft 170 kts 88°
2026-04-30 10:19 22.53356 113.81054 1546 ft 161 kts 88°
2026-04-30 10:19 22.53372 113.82234 1372 ft 156 kts 82°
2026-04-30 10:19 22.53787 113.83293 1155 ft 150 kts 46°
2026-04-30 10:20 22.54649 113.83839 1088 ft 144 kts 13°
2026-04-30 10:20 22.56477 113.83342 1104 ft 147 kts 330°
2026-04-30 10:20 22.57412 113.82861 1102 ft 148 kts 338°
2026-04-30 10:21 22.58336 113.82352 912 ft 146 kts 334°
2026-04-30 10:21 22.59247 113.81863 721 ft 146 kts 335°
2026-04-30 10:21 22.60161 113.81371 535 ft 147 kts 335°
2026-04-30 10:21 22.61069 113.80872 351 ft 146 kts 334°
2026-04-30 10:22 22.61973 113.80383 140 ft 145 kts 334°
2026-04-30 10:22 22.62869 113.79897 28 ft 131 kts 334°
2026-04-30 10:22 22.63444 113.79583 28 ft 44 kts 334°
2026-04-30 10:22 22.63704 113.79449 28 ft 30 kts 340°
2026-04-30 10:23 22.63871 113.79419 28 ft 21 kts
2026-04-30 10:23 22.64002 113.79467 28 ft 18 kts 70°
2026-04-30 10:23 22.63934 113.79533 28 ft 14 kts 152°
2026-04-30 10:23 22.63848 113.79583 28 ft 14 kts 152°
2026-04-30 10:24 22.63757 113.79636 28 ft 14 kts 152°
2026-04-30 10:24 22.63665 113.79687 28 ft 15 kts 154°
2026-04-30 10:24 22.63570 113.79736 28 ft 15 kts 154°
2026-04-30 10:24 22.63473 113.79788 28 ft 15 kts 153°
2026-04-30 10:25 22.63376 113.79842 28 ft 15 kts 152°
2026-04-30 10:25 22.63283 113.79893 28 ft 15 kts 153°
2026-04-30 10:25 22.63208 113.79960 28 ft 14 kts 101°
2026-04-30 10:25 22.63205 113.80019 28 ft 5 kts 104°
2026-04-30 10:26 22.63178 113.80053 28 ft 6 kts 147°
2026-04-30 10:26 22.63126 113.80085 28 ft 10 kts 151°
2026-04-30 10:26 22.63067 113.80116 28 ft 10 kts 154°
2026-04-30 10:26 22.63000 113.80155 28 ft 11 kts 142°
2026-04-30 10:27 22.62981 113.80236 28 ft 12 kts 74°
2026-04-30 10:27 22.63010 113.80308 28 ft 12 kts 62°
2026-04-30 10:27 22.63042 113.80377 28 ft 7 kts 63°
2026-04-30 10:27 22.63069 113.80428 28 ft 8 kts 51°
2026-04-30 10:28 22.63101 113.80437 28 ft 5 kts 352°
2026-04-30 10:28 22.63115 113.80432 28 ft 2 kts 339°
2026-04-30 10:28 22.63126 113.80426 28 ft 3 kts 334°
2026-04-30 10:28 22.63130 113.80424 28 ft 0 kts 334°